MDT,Max TemperatureF,Mean TemperatureF,Min TemperatureF,Max Dew PointF,MeanDew PointF,Min DewpointF,Max Humidity, Mean Humidity, Min Humidity, Max Sea Level PressureIn, Mean Sea Level PressureIn, Min Sea Level PressureIn, Max VisibilityMiles, Mean VisibilityMiles, Min VisibilityMiles, Max Wind SpeedMPH, Mean Wind SpeedMPH, Max Gust SpeedMPH,PrecipitationIn, CloudCover, Events, WindDirDegrees
2013-9-1,80,70,59,57,50,45,88,57,30,30.39,30.31,30.26,10,10,10,24,9,30,0.00,3,Thunderstorm,98
2013-9-2,84,70,55,61,50,45,88,61,25,30.41,30.35,30.27,10,10,2,23,8,34,0.89,3,Thunderstorm,134
2013-9-3,82,66,51,55,52,46,94,70,35,30.41,30.36,30.32,10,10,10,26,4,33,0.00,0,Thunderstorm,42
2013-9-4,86,67,48,52,45,39,93,51,20,30.45,30.40,30.32,10,10,10,13,4,18,0.00,1,,71
2013-9-5,84,68,51,43,39,36,67,44,19,30.47,30.42,30.34,10,10,10,16,5,21,0.00,1,,201
2013-9-6,86,67,48,39,37,34,71,40,17,30.45,30.37,30.26,10,10,10,15,4,24,0.00,0,,203
2013-9-7,84,67,50,45,40,36,62,40,20,30.38,30.32,30.23,10,10,2,20,5,25,0.00,1,,176
2013-9-8,80,64,48,45,41,37,66,43,23,30.33,30.24,30.14,10,10,10,24,4,28,0.00,2,,181
2013-9-9,78,64,51,50,44,41,72,48,26,30.23,30.16,30.08,10,10,10,20,7,25,0.00,2,Thunderstorm,186
2013-9-10,71,60,48,55,48,39,94,67,35,30.31,30.24,30.18,10,10,5,18,4,21,0.21,5,,6
2013-9-11,73,65,57,55,53,52,88,64,47,30.32,30.28,30.24,10,10,10,17,8,22,0.00,4,,156
2013-9-12,62,58,55,57,54,52,94,85,77,30.37,30.32,30.27,10,10,7,12,3,,0.23,7,,60
2013-9-13,60,56,53,54,52,48,94,86,63,30.30,30.24,30.19,10,9,4,10,4,,1.29,7,,175
2013-9-14,66,57,48,52,51,46,94,82,56,30.23,30.19,30.12,10,10,3,17,5,24,0.29,6,Thunderstorm,186
2013-9-15,69,58,48,52,48,46,94,70,43,30.35,30.27,30.21,10,10,8,16,5,17,0.04,4,Thunderstorm,107
2013-9-16,71,60,50,50,48,46,88,70,43,30.40,30.34,30.27,10,10,10,20,4,24,0.00,4,,244
2013-9-17,73,62,50,52,48,43,88,65,33,30.35,30.26,30.15,10,10,10,18,4,23,0.00,3,,214
2013-9-18,68,60,53,55,50,45,94,72,52,30.22,30.17,30.10,10,10,9,20,3,22,0.04,4,Thunderstorm,247
2013-9-19,73,60,46,54,44,32,94,63,25,30.24,30.18,30.13,10,10,3,28,9,33,0.26,2,Thunderstorm,248
2013-9-20,73,58,42,48,42,36,82,56,25,30.31,30.25,30.18,10,10,10,16,6,16,0.00,0,,272
2013-9-21,73,60,46,50,44,37,93,62,27,30.29,30.21,30.10,10,10,10,16,4,18,0.00,1,,248
2013-9-22,73,58,44,48,42,34,88,62,23,30.13,29.99,29.83,10,10,4,24,7,33,0.57,3,Thunderstorm,191
2013-9-23,64,52,39,39,35,30,87,59,30,30.28,30.05,29.89,10,10,10,16,7,18,0.56,0,,293
2013-9-24,69,52,35,37,31,21,87,52,16,30.35,30.27,30.19,10,10,10,9,4,,0.00,0,,355
2013-9-25,73,55,37,37,35,30,87,49,25,30.19,30.04,29.93,10,10,10,23,5,31,0.00,0,,220
2013-9-26,71,58,44,37,31,23,66,36,17,30.04,29.98,29.93,10,10,10,24,7,29,0.00,1,,200
2013-9-27,66,50,35,45,37,28,87,58,37,30.19,30.03,29.94,10,10,7,26,8,33,0.11,6,,209
2013-9-28,62,44,26,30,25,18,93,54,19,30.35,30.29,30.19,10,10,10,12,4,,0.00,0,,56
2013-9-29,71,50,30,30,24,18,86,43,15,30.35,30.28,30.19,10,10,10,18,6,25,0.00,0,,265
2013-9-30,75,54,33,28,26,23,70,39,16,30.24,30.16,30.06,10,10,10,17,6,21,0.00,0,,252